Home   Weather   Venice   Past weeks
Flag for USA

Past Weather in Venice, California, USA — Yesterday and Last 2 Weeks

Now
72 °F

Sunny.


Feels Like: 76 °F
Forecast: 71 / 63 °F
Wind: 7 mph from Southwest

Location: Santa Monica Municipal Airport

Current Time: Oct 17, 2019 at 1:58:06 pm

Latest Report: Oct 17, 2019 at 12:51 pm


Visibility: 8 mi

Pressure: 29.80 "Hg

Humidity: 61%

Dew Point: 58 °F

Location of VeniceLocation

Past Weather in Venice — Graph

°F

Venice Temperature Yesterday

Maximum temperature yesterday: 89 °F (at 11:51 am)
Minimum temperature yesterday: 59 °F (at 4:51 am)
Average temperature yesterday: 68 °F

High & Low Weather Summary for the Past Weeks

 TemperatureHumidityPressure
High89 °F (Oct 16, 11:51 am)94% (Oct 6, 9:51 pm)30.05 "Hg (Oct 6, 9:51 pm)
Low54 °F (Oct 11, 6:51 am)6% (Oct 11, 2:51 pm)29.78 "Hg (Oct 17, 3:51 am)
Average66 °F67%29.91 "Hg
* Reported Oct 2 11:51 am — Oct 17 11:51 am, Venice. Weather by CustomWeather, © 2019

Note: Actual official high and low records may vary slightly from our data, if they occured in-between our weather recording intervals... More about our weather records

Advertising

Venice Weather History for the Previous 24 Hours

Scroll right to see more
 ConditionsComfort  
Time TempWeatherWind HumidityBarometerVisibility
11:51 am
Thu, Oct 17
70 °FSunny.6 mph66%29.82 "Hg9 mi
10:51 am69 °FScattered clouds.No wind63%29.84 "Hg10 mi
9:51 am68 °FPartly sunny.6 mph73%29.83 "Hg7 mi
9:13 am66 °FMostly cloudy.3 mph75%29.83 "Hg6 mi
7:30 am59 °FPartly sunny.3 mph84%29.81 "Hg10 mi
6:51 am60 °FClear.No wind80%29.80 "Hg9 mi
5:51 am61 °FClear.No wind78%29.80 "Hg10 mi
4:51 am62 °FClear.No wind75%29.78 "Hg10 mi
3:51 am60 °FClear.3 mph86%29.78 "Hg10 mi
2:51 am62 °FClear.No wind83%29.79 "Hg10 mi
1:51 am62 °FClear.3 mph83%29.80 "Hg10 mi
12:51 am63 °FClear.No wind84%29.81 "Hg10 mi
11:51 pm
Wed, Oct 16
64 °FClear.3 mph81%29.83 "Hg10 mi
10:51 pm64 °FClear.No wind84%29.83 "Hg10 mi
9:51 pm65 °FClear.5 mph78%29.82 "Hg10 mi
8:51 pm64 °FClear.No wind75%29.81 "Hg10 mi
7:51 pm66 °FClear.No wind70%29.80 "Hg10 mi
6:51 pm66 °FClear.No wind78%29.79 "Hg10 mi
5:51 pm67 °FSunny.3 mph76%29.79 "Hg10 mi
4:51 pm70 °FSunny.7 mph66%29.80 "Hg10 mi
3:51 pm70 °FSunny.5 mph64%29.82 "Hg10 mi
2:51 pm72 °FSunny.9 mph57%29.83 "Hg10 mi
1:51 pm76 °FSunny.13 mph48%29.84 "Hg10 mi
Weather by CustomWeather, © 2019

See weather overview